Location: Unspecified
(51.0950°N, 12.9690°E)
Time: 22:48:56
(UTC+00:00)

USA 215 - Pass Details

Date: 28 October 2021
Orbit: 1099 x 1109 km, 123.0° (Epoch: 20 November)

Event Time Altitude Azimuth Distance (km) Brightness Sun altitude
Exits shadow 19:45:36 52° 329° (NNW) 1,350 3.8 -36.9°
Drops below altitude 10° 19:51:09 10° 279° (W) 2,964 6.2 -37.7°
Sets 19:53:41 0° 275° (W) 3,923 6.9 -38.0°
